Waarnemingen

Advertentie
Mijn weer
Fehmarn, Duitsland (10055): temperatuur & dauwpunt: 20.09.2018 05:00:00 - 26.09.2018 05:00:00 (CEST)Fehmarn, Duitsland (10055): temperatuur 5cm & temperatuur -5cm: 20.09.2018 05:00:00 - 26.09.2018 05:00:00 (CEST)Fehmarn, Duitsland (10055): temperatuur -20cm & temperatuur -100cm: 20.09.2018 05:00:00 - 26.09.2018 05:00:00 (CEST)Fehmarn, Duitsland (10055): windsnelheid & windstoten: 20.09.2018 05:00:00 - 26.09.2018 05:00:00 (CEST)Fehmarn, Duitsland (10055): windrichting: 20.09.2018 05:00:00 - 26.09.2018 05:00:00 (CEST)Fehmarn, Duitsland (10055): luchtdruk: 20.09.2018 05:00:00 - 26.09.2018 05:00:00 (CEST)Fehmarn, Duitsland (10055): zicht: 20.09.2018 05:00:00 - 26.09.2018 05:00:00 (CEST)Fehmarn, Duitsland (10055): Zonneschijnduur: 20.09.2018 05:00:00 - 26.09.2018 05:00:00 (CEST)Fehmarn, Duitsland (10055): neerslag: 20.09.2018 05:00:00 - 26.09.2018 05:00:00 (CEST)
Datum & Tijd tt [°C] td [°C] tt 5cm [°C] tt -5cm [°C] tt -20cm [°C] tt -100cm [°C] ff [km/u] ff [kn] fx [km/u] fx [kn] dd ppp [hPa] vv [km] sd [min] rr [mm]
26.09.2018 05:00:00 12,2 7,5 11,7 12,0 12,6 16,4 30 16 46 25 ZW 1031,1 55 0 0,0
26.09.2018 04:00:00 12,2 7,5 11,5 11,8 12,6 16,4 29 16 46 25 ZW 1031,8 56 0 0,0
26.09.2018 03:00:00 12,2 7,7 11,4 11,9 12,7 16,4 27 14 43 23 ZW 1032,6 56 0 0,0
26.09.2018 02:00:00 12,2 7,5 11,4 11,9 12,9 16,4 26 14 41 22 ZW 1033,1 62 0 0,0
26.09.2018 01:00:00 12,1 7,4 10,9 11,7 13,0 16,4 24 13 36 19 ZW 1033,9 70 0 0,0
26.09.2018 00:00:00 12,3 7,7 10,9 12,0 13,2 16,4 23 12 37 20 WZW 1034,7 67 0 0,0
25.09.2018 23:00:00 12,6 7,6 11,3 12,3 13,3 16,5 29 15 37 20 WZW 1035,0 70 0 0,0
25.09.2018 22:00:00 12,9 8,0 12,0 12,7 13,5 16,5 30 16 38 21 W 1035,3 69 0 0,0
25.09.2018 21:00:00 13,1 7,3 12,0 12,9 13,7 16,5 34 18 41 22 W 1035,4 70 0 0,0
25.09.2018 20:00:00 13,0 7,5 11,9 13,4 13,8 16,5 28 15 40 22 WZW 1035,5 70 0 0,0
25.09.2018 19:00:00 13,3 6,8 12,5 14,1 13,9 16,5 31 17 41 22 W 1035,8 70 10 0,0
25.09.2018 18:00:00 13,5 6,4 13,1 15,3 13,9 16,5 32 17 40 22 W 1036,0 44 47 0,0
25.09.2018 17:00:00 13,6 6,0 14,0 16,8 13,7 16,5 16 9 24 13 W 1036,3 50 60 0,0
25.09.2018 16:00:00 13,3 5,9 14,1 17,0 13,4 16,6 20 11 37 20 W 1036,6 17 60 0,0
25.09.2018 15:00:00 12,9 5,3 14,3 17,9 13,1 16,6 26 14 34 18 W 1036,8 14 60 0,0
25.09.2018 14:00:00 12,8 5,1 14,7 18,2 12,6 16,6 23 13 31 17 WNW 1037,2 22 58 0,0
25.09.2018 13:00:00 12,6 4,7 14,8 17,5 12,2 16,6 21 11 32 17 NW 1037,1 17 60 0,0
25.09.2018 12:00:00 12,1 4,6 13,9 15,7 11,8 16,6 26 14 36 20 NW 1037,0 16 60 0,0
25.09.2018 11:00:00 11,6 4,2 12,8 14,0 11,6 16,6 26 14 38 20 NW 1036,4 23 60 0,0
25.09.2018 10:00:00 11,1 4,0 11,7 12,2 11,5 16,6 30 16 44 24 NNW 1035,8 20 60 0,0
25.09.2018 09:00:00 10,8 3,4 10,7 10,6 11,5 16,7 36 19 47 26 NNW 1034,9 21 60 0,0
25.09.2018 08:00:00 10,4 4,0 9,7 9,7 11,6 16,7 35 19 49 26 NW 1034,3 30 8 0,0
25.09.2018 07:00:00 10,5 4,5 9,5 9,8 11,7 16,7 43 23 53 28 NNW 1033,8 52 0 0,0
25.09.2018 06:00:00 10,5 4,7 9,5 9,9 11,8 16,7 43 23 54 29 NW 1033,2 51 0 0,0
25.09.2018 05:00:00 10,5 4,6 9,5 10,0 11,9 16,7 38 21 49 27 NW 1032,5 58 0 0,0
25.09.2018 04:00:00 10,5 4,8 9,4 10,1 12,0 16,7 40 22 49 26 NW 1032,1 48 0 0,0
25.09.2018 03:00:00 10,6 5,7 9,5 10,3 12,2 16,7 39 21 51 27 NW 1031,6 40 0 0,0
25.09.2018 02:00:00 10,7 5,5 9,8 10,4 12,3 16,7 43 23 56 31 NW 1031,3 39 0 0,0
25.09.2018 01:00:00 10,7 5,0 9,8 10,6 12,4 16,8 47 26 61 33 NW 1030,9 39 0 0,0
25.09.2018 00:00:00 10,9 5,7 10,0 10,8 12,6 16,8 48 26 60 33 NW 1030,1 41 0 0,0
24.09.2018 23:00:00 10,8 5,1 9,9 11,0 12,8 16,8 49 27 65 35 NW 1029,4 40 0 0,0
24.09.2018 22:00:00 11,0 4,6 10,2 11,3 12,9 16,8 53 29 68 37 NW 1028,5 41 0 0,0
24.09.2018 21:00:00 11,5 5,2 10,7 11,6 13,1 16,8 51 27 71 38 NW 1027,7 39 0 0,0
24.09.2018 20:00:00 11,7 4,6 10,9 12,1 13,2 16,8 53 28 69 38 NNW 1027,0 46 0 0,0
24.09.2018 19:00:00 11,6 4,7 11,1 12,7 13,4 16,9 51 27 64 35 NW 1026,0 45 17 0,0
24.09.2018 18:00:00 12,1 3,8 11,8 13,2 13,5 16,9 55 30 70 38 NW 1025,5 13 28 0,0
24.09.2018 17:00:00 12,3 5,5 12,6 13,7 13,5 16,9 51 28 67 36 NW 1025,0 30 10 0,0
24.09.2018 16:00:00 12,3 4,0 12,1 15,3 13,3 16,9 47 26 58 31 NW 1024,5 41 50 0,0
24.09.2018 15:00:00 12,5 4,7 13,4 15,6 13,2 16,9 48 26 63 34 NW 1024,4 12 31 0,0
24.09.2018 14:00:00 12,5 5,6 12,7 16,2 13,0 16,9 41 22 56 31 NW 1023,8 33 39 0,0
24.09.2018 13:00:00 12,6 4,9 14,1 16,6 12,6 16,9 45 25 61 33 NW 1023,4 6 59 0,0
24.09.2018 12:00:00 12,2 4,5 13,5 15,2 12,4 17,0 51 27 69 37 NW 1022,9 10 57 0,0
24.09.2018 11:00:00 11,9 5,3 12,7 13,6 12,2 17,0 57 31 70 38 NW 1022,3 9 54 0,0
24.09.2018 10:00:00 11,5 5,2 11,5 11,9 12,2 17,0 57 31 78 42 NW 1021,1 18 22 0,0
24.09.2018 09:00:00 11,4 5,5 11,1 11,3 12,2 17,0 61 33 76 41 NW 1019,9 21 15 0,0
24.09.2018 08:00:00 11,5 5,2 10,9 11,0 12,3 17,0 59 32 82 44 NW 1018,7 22 1 0,0
24.09.2018 07:00:00 11,6 5,6 10,9 11,0 12,4 17,0 61 33 76 41 NW 1017,9 31 0 0,0
24.09.2018 06:00:00 11,6 5,7 11,0 11,2 12,4 17,1 59 32 75 40 NW 1017,1 31 0 0,0
24.09.2018 05:00:00 11,7 6,1 11,1 11,3 12,5 17,1 59 32 73 39 NW 1016,3 33 0 0,0
24.09.2018 04:00:00 12,0 6,5 11,5 11,4 12,6 17,1 55 30 71 38 NW 1015,4 33 0 0,0
24.09.2018 03:00:00 11,8 6,0 11,2 11,3 12,6 17,1 54 29 72 39 NW 1014,8 31 0 0,0
24.09.2018 02:00:00 12,0 6,1 11,2 11,4 12,7 17,1 54 29 68 37 NW 1014,0 37 0 0,0
24.09.2018 01:00:00 11,9 5,8 11,0 11,2 12,9 17,1 56 30 70 38 NW 1013,2 35 0 0,0
24.09.2018 00:00:00 12,1 5,7 11,3 11,4 13,0 17,1 56 30 67 36 NW 1012,4 38 0 0,0
23.09.2018 23:00:00 12,4 6,7 11,4 11,6 13,2 17,2 51 28 63 34 NW 1011,6 42 0 0,0
23.09.2018 22:00:00 12,3 6,4 11,3 11,9 13,3 17,2 46 25 56 31 NNW 1010,8 57 0 0,0
23.09.2018 21:00:00 12,6 7,1 11,9 12,4 13,4 17,2 42 23 51 28 NW 1009,7 55 0 0,0
23.09.2018 20:00:00 12,8 6,8 12,2 12,7 13,5 17,2 37 20 46 25 NW 1008,8 70 0 0,0
23.09.2018 19:00:00 13,2 7,0 12,7 13,1 13,6 17,2 34 19 46 25 NW 1008,2 63 0 0,0
23.09.2018 18:00:00 13,2 6,7 12,7 13,6 13,7 17,2 28 15 36 19 WNW 1008,5 62 0 0,0
23.09.2018 17:00:00 13,2 7,0 12,8 14,2 13,7 17,3 23 12 29 16 WNW 1008,8 70 0 0,0
23.09.2018 16:00:00 13,1 7,7 13,1 14,6 13,6 17,3 18 10 26 14 W 1009,2 70 0 0,0
23.09.2018 15:00:00 13,1 7,1 13,2 15,1 13,5 17,3 23 12 28 15 W 1010,1 70 0 0,0
23.09.2018 14:00:00 13,3 7,5 14,1 16,2 13,2 17,3 19 10 30 16 W 1010,5 58 25 0,0
23.09.2018 13:00:00 13,5 7,9 15,0 15,5 12,9 17,3 25 14 35 19 W 1010,9 40 9 0,0
23.09.2018 12:00:00 12,9 8,3 13,4 14,1 12,7 17,3 28 15 37 20 W 1011,6 49 0 0,0
23.09.2018 11:00:00 12,5 9,1 13,0 13,5 12,6 17,3 29 15 39 21 WZW 1011,8 29 1 0,0
23.09.2018 10:00:00 12,2 8,6 12,6 12,6 12,5 17,4 27 15 39 21 WZW 1011,8 27 0 0,0
23.09.2018 09:00:00 11,7 8,9 11,8 11,7 12,5 17,4 32 17 44 24 WZW 1011,8 24 17 0,0
23.09.2018 08:00:00 11,9 8,6 10,2 11,1 12,6 17,4 30 16 46 25 W 1011,7 58 0 0,1
23.09.2018 07:00:00 11,8 8,6 10,7 10,8 12,7 17,4 32 18 49 26 WZW 1011,6 37 0 0,0
23.09.2018 06:00:00 11,8 8,4 10,5 10,8 12,8 17,4 36 20 51 27 WZW 1011,8 46 0 0,0
23.09.2018 05:00:00 12,2 8,9 11,2 11,0 12,9 17,4 35 19 48 26 WZW 1012,1 42 0 0,0
23.09.2018 04:00:00 11,8 8,9 10,5 11,0 13,1 17,4 37 20 47 26 WZW 1012,5 40 0 0,0
23.09.2018 03:00:00 12,1 8,7 10,8 11,2 13,2 17,4 36 19 51 27 WZW 1012,5 42 0 0,0
23.09.2018 02:00:00 11,9 8,3 10,8 11,4 13,3 17,5 38 21 49 27 WZW 1012,8 42 0 0,0
23.09.2018 01:00:00 12,6 8,2 11,4 11,5 13,5 17,5 37 20 53 29 WZW 1012,7 44 0 0,0
23.09.2018 00:00:00 12,5 7,9 11,5 11,9 13,7 17,5 37 20 48 26 WZW 1012,9 41 0 0,0
22.09.2018 23:00:00 12,6 7,4 11,4 12,0 13,8 17,5 37 20 49 27 WZW 1012,9 42 0 0,0
22.09.2018 22:00:00 13,2 7,6 12,4 12,3 14,0 17,5 36 19 59 32 WZW 1012,7 39 0 0,0
22.09.2018 21:00:00 13,5 7,6 12,7 12,7 14,2 17,5 46 25 76 41 W 1012,5 43 0 0,0
22.09.2018 20:00:00 14,1 8,1 12,7 13,1 14,3 17,5 50 27 64 35 W 1012,1 39 0 0,0
22.09.2018 19:00:00 14,3 7,0 13,7 13,6 14,4 17,5 54 29 64 35 W 1012,0 35 32 0,0
22.09.2018 18:00:00 14,1 8,9 13,9 14,6 14,5 17,6 41 22 54 29 WZW 1012,1 16 54 0,0
22.09.2018 17:00:00 13,9 9,2 14,7 15,1 14,5 17,6 35 19 65 35 ZW 1012,3 14 47 0,0
22.09.2018 16:00:00 14,6 8,4 14,8 14,5 14,4 17,6 51 27 74 40 WZW 1012,4 29 20 0,0
22.09.2018 15:00:00 15,6 8,4 16,5 16,6 14,2 17,6 52 28 68 37 W 1012,2 14 47 0,0
22.09.2018 14:00:00 14,6 9,7 15,7 16,4 14,0 17,6 44 24 78 42 WZW 1012,1 12 42 0,0
22.09.2018 13:00:00 13,5 9,8 13,2 15,3 13,8 17,6 42 23 63 34 WZW 1012,2 20 32 0,0
22.09.2018 12:00:00 13,2 10,0 13,5 14,2 13,7 17,6 35 19 51 28 WZW 1012,3 9 9 0,9
22.09.2018 11:00:00 13,4 9,4 14,7 15,2 13,5 17,6 32 17 51 28 ZW 1012,5 70 51 0,0
22.09.2018 10:00:00 12,9 9,3 13,5 13,7 13,4 17,6 34 19 50 27 ZW 1012,1 18 59 0,0
22.09.2018 09:00:00 12,7 9,5 13,2 12,2 13,4 17,6 36 19 54 29 WZW 1011,6 17 60 0,0
22.09.2018 08:00:00 12,8 9,1 12,2 11,2 13,5 17,6 41 22 58 31 W 1010,9 26 7 0,0
22.09.2018 07:00:00 12,4 9,4 11,2 11,2 13,7 17,6 41 22 58 31 WZW 1010,3 47 0 0,0
22.09.2018 06:00:00 12,2 9,3 10,5 11,3 13,8 17,6 44 24 64 35 WZW 1009,6 53 0 0,0
22.09.2018 05:00:00 12,0 9,4 10,7 11,4 14,0 17,6 54 29 71 38 WZW 1009,0 52 0 0,3
22.09.2018 04:00:00 11,4 8,7 10,0 11,4 14,1 17,6 52 28 69 37 WZW 1008,5 55 0 0,2
22.09.2018 03:00:00 11,4 8,6 10,2 11,6 14,3 17,6 53 29 68 37 WZW 1007,7 33 0 0,4
22.09.2018 02:00:00 11,1 8,5 9,9 11,8 14,5 17,6 49 26 67 36 WZW 1007,3 15 0 0,3
22.09.2018 01:00:00 11,9 8,2 11,0 11,8 14,7 17,6 50 27 76 41 WZW 1006,6 52 0 0,0
22.09.2018 00:00:00 12,2 7,6 11,4 12,0 14,9 17,6 53 29 86 46 WZW 1005,9 64 0 0,0
21.09.2018 23:00:00 12,6 7,5 11,7 12,0 15,2 17,6 66 35 90 49 WZW 1005,4 40 0 0,0
21.09.2018 22:00:00 12,7 6,9 11,9 12,1 15,5 17,6 63 34 89 48 WZW 1004,7 63 0 0,0
21.09.2018 21:00:00 13,3 7,2 12,1 12,4 15,9 17,6 58 31 77 42 WZW 1004,4 59 0 0,0
21.09.2018 20:00:00 13,1 7,7 11,4 13,1 16,2 17,6 58 31 98 53 W 1003,6 44 0 0,0
21.09.2018 19:00:00 14,2 8,6 13,2 14,0 16,5 17,6 58 32 84 46 W 1003,0 34 16 0,1
21.09.2018 18:00:00 15,1 9,0 14,7 14,8 16,8 17,6 61 33 77 41 WZW 1002,6 37 0 0,0
21.09.2018 17:00:00 15,7 9,9 15,2 15,3 17,1 17,6 55 30 76 41 W 1001,7 39 0 0,0
21.09.2018 16:00:00 15,6 11,2 14,3 16,0 17,3 17,6 55 30 70 38 WZW 1001,6 25 0 0,1
21.09.2018 15:00:00 15,3 13,0 14,3 17,0 17,5 17,6 48 26 72 39 W 1000,8 12 0 2,3
21.09.2018 14:00:00 15,9 13,2 15,2 19,1 17,5 17,6 62 33 80 43 W 999,8 18 0 0,0
21.09.2018 13:00:00 21,8 12,5 21,6 20,5 17,3 17,6 45 24 77 42 WZW 998,4 26 0 0,0
21.09.2018 12:00:00 24,1 12,1 23,9 20,8 17,1 17,6 32 17 56 31 ZZW 998,0 34 0 0,0
21.09.2018 11:00:00 22,8 13,7 22,9 19,9 16,9 17,6 33 18 58 31 Z 998,5 29 6 0,0
21.09.2018 10:00:00 21,4 14,0 21,7 18,9 16,8 17,6 30 16 47 26 Z 999,3 28 34 0,0
21.09.2018 09:00:00 19,9 13,2 19,4 17,8 16,8 17,6 23 12 40 21 Z 1000,5 40 37 0,0
21.09.2018 08:00:00 19,2 12,0 18,9 16,8 16,8 17,5 22 12 37 20 Z 1001,5 35 13 0,0
21.09.2018 07:00:00 18,8 11,9 17,7 16,7 16,9 17,5 23 12 35 19 Z 1002,5 48 0 0,0
21.09.2018 06:00:00 18,6 11,9 17,3 16,6 17,1 17,5 23 12 36 19 Z 1003,9 46 0 0,0
21.09.2018 05:00:00 18,4 12,9 17,0 16,8 17,2 17,5 21 11 39 21 Z 1004,8 39 0 0,0
21.09.2018 04:00:00 18,3 13,1 17,1 16,9 17,3 17,5 20 11 33 18 ZZO 1005,7 37 0 0,0
21.09.2018 03:00:00 18,4 13,1 17,4 17,2 17,5 17,5 17 9 28 15 ZZO 1007,1 39 0 0,0
21.09.2018 02:00:00 19,1 12,8 17,9 17,3 17,6 17,5 15 8 23 12 Z 1008,0 41 0 0,0
21.09.2018 01:00:00 17,9 13,3 16,8 17,2 17,8 17,5 11 6 20 11 ZZO 1009,0 40 0 0,0
21.09.2018 00:00:00 17,5 12,5 15,6 17,3 18,1 17,5 9 5 12 7 ZZO 1010,0 42 0 0,0
20.09.2018 23:00:00 17,9 12,7 16,0 18,0 18,3 17,5 6 4 13 7 Z 1010,8 42 0 0,0
20.09.2018 22:00:00 20,4 13,1 18,4 18,7 18,5 17,5 9 5 18 10 ZZW 1011,3 53 0 0,0
20.09.2018 21:00:00 20,8 13,3 18,7 19,3 18,6 17,5 12 6 23 13 ZW 1011,6 54 0 0,0
20.09.2018 20:00:00 21,3 13,7 20,2 19,9 18,7 17,5 12 7 21 11 ZZW 1011,8 45 0 0,0
20.09.2018 19:00:00 21,1 14,6 20,5 20,7 18,8 17,5 13 7 19 10 ZW 1012,1 40 0 0,0
20.09.2018 18:00:00 20,8 15,4 20,8 21,5 18,7 17,5 12 7 27 14 ZW 1012,7 52 6 0,0
20.09.2018 17:00:00 22,5 14,9 23,4 23,0 18,6 17,5 16 9 24 13 ZW 1012,6 34 54 0,0
20.09.2018 16:00:00 21,2 15,5 22,3 22,1 18,5 17,5 16 8 32 17 ZW 1013,4 39 1 0,0
20.09.2018 15:00:00 20,9 15,2 21,3 22,3 18,3 17,5 25 13 36 19 WZW 1013,6 42 0 0,0
20.09.2018 14:00:00 21,0 15,5 22,4 23,1 18,0 17,5 20 11 29 16 WZW 1013,7 52 11 0,0
20.09.2018 13:00:00 21,0 14,9 22,3 22,7 17,7 17,5 18 10 34 18 ZW 1013,9 44 21 0,0
20.09.2018 12:00:00 20,8 14,8 23,8 23,0 17,3 17,4 22 12 35 19 ZW 1014,4 19 60 0,0
20.09.2018 11:00:00 19,7 14,5 21,9 20,9 17,1 17,4 23 12 39 21 ZW 1014,6 16 60 0,0
20.09.2018 10:00:00 18,9 14,1 20,4 19,2 17,0 17,4 23 12 40 21 ZW 1014,6 23 43 0,0
20.09.2018 09:00:00 18,3 14,0 19,4 17,9 17,0 17,4 22 12 36 20 ZW 1014,6 36 52 0,0
20.09.2018 08:00:00 17,6 13,6 17,2 16,8 17,1 17,4 16 9 32 17 ZZW 1014,5 37 7 0,0
20.09.2018 07:00:00 17,7 13,7 16,7 17,0 17,3 17,4 16 8 29 16 ZZW 1014,4 39 0 0,0
20.09.2018 06:00:00 17,9 14,1 16,9 17,0 17,4 17,4 16 9 28 15 ZW 1014,2 37 0 0,0
20.09.2018 05:00:00 18,1 14,2 16,9 17,2 17,6 17,4 16 9 34 18 ZW 1014,3 38 0 0,0

tt = temperatuur
td = dauwpunt
tt 5cm = temperatuur 5cm
tt -5cm = temperatuur -5cm
tt -20cm = temperatuur -20cm
tt -100cm = temperatuur -100cm
ff = windsnelheid
fx = windstoten
dd = windrichting
ppp = luchtdruk
vv = zicht
sd = Zonneschijnduur
rr = neerslag

Weerstations in de omgeving